Location: Unspecified
(0.0000°N, 0.0000°E)
Time: 23:14:51
(UTC+00:00)

Vanguard 2 - Visible Passes

Search period start: 01 October 2020 00:00
Search period end: 11 October 2020 00:00
Orbit: 554 x 2937 km, 32.9° (Epoch: 01 October)

Date Brightness Start Highest point End Pass type
(mag) Time Alt. Az. Time Alt. Az. Time Alt. Az.
01 Oct 10.6 03:17:35 13° N 03:17:35 13° N 03:18:38 10° N visible
01 Oct 11.6 18:28:37 10° SSW 18:35:24 14° S 18:42:57 10° SE visible
01 Oct 11.1 20:38:57 10° SSW 20:51:57 27° SSE 20:51:57 27° SSE visible
01 Oct 11.6 22:49:48 10° SW 22:53:21 19° SW 22:53:21 19° SW visible
02 Oct 10.7 03:34:29 11° N 03:34:29 11° N 03:35:03 10° N visible
02 Oct 11.5 18:46:58 10° SSW 18:55:09 16° SSE 19:04:15 10° SE visible
02 Oct 11.0 20:56:35 10° SSW 21:08:33 33° SSE 21:08:33 33° SSE visible
02 Oct 11.7 23:07:44 10° SW 23:09:56 16° SW 23:09:56 16° SW visible
03 Oct 11.4 19:04:48 10° SSW 19:14:42 19° SSE 19:23:48 12° SE visible
03 Oct 10.9 21:14:12 10° SW 21:25:11 37° S 21:25:11 37° S visible
03 Oct 11.9 23:25:51 10° SW 23:26:34 12° SW 23:26:34 12° SW visible
04 Oct 11.2 19:22:24 10° SSW 19:33:59 23° SSE 19:40:27 19° SE visible
04 Oct 10.9 21:31:52 10° SW 21:41:51 39° SSW 21:41:51 39° SSW visible
05 Oct 11.0 19:39:53 10° SSW 19:52:58 29° SSE 19:57:10 27° SE visible
05 Oct 11.0 21:49:38 10° SW 21:58:33 38° SSW 21:58:33 38° SSW visible
06 Oct 10.7 19:57:22 10° SSW 20:11:42 37° SSE 20:13:54 36° SE visible
06 Oct 11.1 22:07:35 10° SW 22:15:19 35° SW 22:15:19 35° SW visible
07 Oct 11.3 18:07:05 10° SSW 18:15:45 18° SSE 18:26:00 10° ESE visible
07 Oct 10.5 20:14:53 10° SW 20:30:12 47° SE 20:30:43 47° SE visible
07 Oct 11.3 22:25:44 10° WSW 22:32:07 30° WSW 22:32:07 30° WSW visible
08 Oct 11.1 18:24:18 10° SSW 18:34:42 24° SSE 18:46:10 12° ESE visible
08 Oct 10.3 20:32:31 10° SW 20:47:34 58° SSE 20:47:34 58° SSE visible
08 Oct 11.5 22:44:11 10° WSW 22:48:59 24° WSW 22:48:59 24° WSW visible
09 Oct 10.9 18:41:35 10° SSW 18:53:22 30° SSE 19:03:05 19° ESE visible
09 Oct 10.2 20:50:17 10° SW 21:04:29 68° S 21:04:29 68° S visible
09 Oct 11.7 23:02:59 10° WSW 23:05:54 17° WSW 23:05:54 17° WSW visible
10 Oct 10.6 18:58:55 10° SSW 19:11:48 39° SE 19:20:02 27° ESE visible
10 Oct 10.3 21:08:14 10° SW 21:21:28 68° SW 21:21:28 68° SW visible
10 Oct 11.9 23:22:13 10° W 23:22:52 11° W 23:22:52 11° W visible
